Location: Unspecified
(0.0000°N, 0.0000°E)
Time: 04:25:01
(UTC+00:00)

deb Midas V - Visible Passes

Search period start: 13 April 2026 00:00
Search period end: 23 April 2026 00:00
Orbit: 2771 x 3389 km, 86.7° (Epoch: 12 April)

Date Brightness Start Highest point End Pass type
(mag) Time Alt. Az. Time Alt. Az. Time Alt. Az.
13 Apr ? 18:02:21 10° NNE 18:19:38 62° E 18:35:29 10° S visible
13 Apr ? 20:38:43 10° NW 20:51:06 24° W 21:03:07 10° SW visible
14 Apr ? 05:30:32 10° SSE 05:44:02 41° E 05:58:19 10° NNE visible
14 Apr ? 19:28:40 10° NNW 19:45:22 54° W 20:01:01 10° SSW visible
15 Apr ? 04:30:51 10° ESE 04:38:16 15° E 04:45:51 10° NE visible
15 Apr ? 18:21:46 10° N 18:39:25 83° E 18:55:38 10° S visible
15 Apr ? 21:03:14 10° WNW 21:10:39 14° W 21:17:58 10° WSW visible
16 Apr ? 19:49:49 10° NNW 20:05:00 38° W 20:19:26 10° SSW visible
17 Apr ? 04:46:25 10° SE 04:57:49 26° E 05:09:41 10° NE visible
17 Apr ? 18:41:42 10° N 18:59:10 76° W 19:15:17 10° S visible
18 Apr ? 20:11:55 10° NW 20:24:36 25° W 20:36:50 10° SW visible
19 Apr ? 05:03:58 10° SSE 05:17:24 39° E 05:31:37 10° NNE visible
19 Apr ? 19:02:09 10° NNW 19:18:51 56° W 19:34:25 10° SSW visible
20 Apr ? 04:04:57 10° ESE 04:11:40 14° E 04:18:30 10° ENE visible
20 Apr ? 17:55:23 10° N 18:12:53 80° E 18:28:53 10° S visible
20 Apr ? 20:35:59 10° NW 20:44:09 15° W 20:52:10 10° WSW visible
21 Apr ? 05:22:28 10° SSE 05:37:01 55° E 05:52:40 10° NNE visible
21 Apr ? 19:23:12 10° NNW 19:38:29 40° W 19:52:56 10° SSW visible
22 Apr ? 04:20:02 10° SE 04:31:12 24° E 04:42:49 10° NE visible
22 Apr ? 18:15:14 10° N 18:32:37 79° W 18:48:36 10° S visible
